DELTA 1 DEB, 13534

Orbit data source: Space-Track

DELTA 1 DEB, 13534 is space debris in LEO originally from a launch on Thu, 29 Jul 1976 UTC launched from the Air Force Western Test Range (AFWTR). Debris objects in space refer to the collection of defunct objects orbiting the Earth. Examples of debris include non-operational satellites, rocket bodies, and fragments generated from explosions, collisions, or faulty payload assembly.

Loading next visibility...
Identifier
13534, 1976-077EG
Orbit
LEO
Country
Flag of USUS
Related business
Manufacturer
Unknown
Mission
Spacecraft
Bus & Motor
Unknown
Mass
Unknown
Launch date (UTC)
1976-07-29 (50 years ago)
Launch vehicle
Unknown
Launch site
Air Force Western Test Range (AFWTR)
Object type
Payload
Rocket body
Debris
Shape & HBR
Unknown shape, 0.1 m
Radar Cross Section
Medium (>0.1 m² and <1 m²)

Expand to show TLE details & history
Last TLE update: 8 hours ago

TLE from 8 hours ago
0 DELTA 1 DEB
1 13534U 76077EG  26255.73763516 -.00000081  00000-0 -68908-3 0  9996
2 13534 101.8657 355.7627 0397131  56.0127  96.6795 11.68360126 35561
Epoch: 2026-09-12T17:42Z
TLE epoch observation values (Epoch: 2026-09-12T17:42:11.677Z)
Latitude
22.3196°
Longitude
-76.60329°
Altitude
1,878.586 km
Speed
6.93 km/s
True Right ascension
12h 02m 45s
True Declination
22° 12' 55"
Sunlit
Object was in daylight at epoch
Visualization orbit readout
Latitude
Unknown
Longitude
Unknown
Altitude
Unknown
Speed
Unknown
Apparent Right ascension
Unknown
Apparent Declination
Unknown
Sunlit
N/A
Visualization observer readout
Local Sidereal Time
18:35:37
Azimuth
Unknown
Elevation
Unknown
Doppler factor
Unknown
Orbital elements
Apogee altitude
2,149.07 km
Perigee altitude
1,497.656 km
Semi-major axis
8,201.5 km
Eccentricity
0.03971
Inclination
101.8657°
RAAN
355.7627°
Arg. of periapsis
56.0127°
True anomaly
101.16885°
Mean anomaly
96.6795°
Eccentric anomaly
98.92733°
Mean motion
2.92216 °/min
Orbital period
123.2 mins
BSTAR
-0.00068908
Loading maneuver chart data...
Computing Atmospheric mass density...
Loading historical data...
Loading historical data...
Loading historical data...
Loading historical data...
Loading historical data...
Loading historical data...
Loading historical data...

Documentation

Showing up to 5 results
|